Weather History for St. Petersburg, FL

Change the Weather History Date:

Friday, November 7, 2014

  Actual Average Record
Temperature  
Mean Temperature 69 °F -  
Max Temperature 75 °F 77 °F 87 °F (1986)
Min Temperature 63 °F 62 °F 48 °F (1954)
Cooling Degree Days 4    
Growing Degree Days 19 (Base 50)    
Moisture  
Dew Point 59 °F    
Average Humidity 69    
Maximum Humidity 87    
Minimum Humidity 46    
Precipitation  
Precipitation 0.00 in - - ()
Sea Level Pressure  
Sea Level Pressure 29.96 in    
Wind  
Wind Speed 8 mph (NNE)    
Max Wind Speed 15 mph    
Max Gust Speed 23 mph    
Visibility 10 miles    
Events Rain    
Averages and records for this station are not official NWS values.
T = Trace of Precipitation, MM = Missing Value Source: NWS Daily Summary

Daily Weather History Graph

Daily Weather History Graph

Search for Another Location

Airport:

Trip Planner

Search our weather history database for the weather conditions in past years. The results will help you decide how hot, cold, wet, or windy it might be!

Date:

Astronomy

Nov. 07, 2014 Rise Set
Actual Time 6:45 AM EST 5:42 PM EST
Civil Twilight 6:21 AM EST 6:06 PM EST
Nautical Twilight 5:53 AM EST 6:34 PM EST
Astronomical Twilight 5:25 AM EST 7:02 PM EST
Moon 6:35 PM EST (11/7) 7:19 AM EST (11/7)
Length of Visible Light 11h 45m
Length of Day
10h 56m
Full, 99% of the Moon is Illuminated
Nov 7
Full
Nov 14
Last Quarter
Nov 22
New
Nov 29
First Quarter
Dec 6
Full

Hourly Weather History & Observations

Time (EST) Temp. Dew Point Humidity Pressure Visibility Wind Dir Wind Speed Gust Speed Precip Events Conditions
12:53 AM 73.0 °F 64.0 °F 73% 29.96 in 10.0 mi NW 4.6 mph - N/A   Overcast
1:53 AM 73.0 °F 64.0 °F 73% 29.95 in 10.0 mi NNW 6.9 mph - N/A   Mostly Cloudy
2:53 AM 72.0 °F 64.9 °F 78% 29.94 in 10.0 mi NW 3.5 mph - N/A   Clear
3:53 AM 72.0 °F 66.0 °F 81% 29.94 in 10.0 mi NW 6.9 mph - N/A   Clear
4:53 AM 71.1 °F 66.0 °F 84% 29.94 in 10.0 mi NNW 5.8 mph - N/A   Clear
5:53 AM 68.0 °F 64.0 °F 87% 29.96 in 10.0 mi North 12.7 mph - 0.00 in Rain Light Rain
6:07 AM 68.0 °F 64.0 °F 87% 29.96 in 10.0 mi NNE 13.8 mph - 0.00 in   Overcast
6:23 AM 66.9 °F 62.1 °F 84% 29.97 in 10.0 mi North 15.0 mph 23.0 mph 0.00 in   Overcast
6:53 AM 66.9 °F 61.0 °F 81% 29.97 in 10.0 mi NNE 12.7 mph - 0.00 in   Scattered Clouds
7:53 AM 68.0 °F 60.1 °F 76% 29.99 in 10.0 mi NE 10.4 mph - N/A   Clear
8:53 AM 69.1 °F 61.0 °F 75% 30.00 in 10.0 mi NNE 12.7 mph - N/A   Clear
9:53 AM 70.0 °F 60.1 °F 71% 30.00 in 10.0 mi ENE 8.1 mph - N/A   Clear
10:53 AM 72.0 °F 59.0 °F 64% 30.00 in 10.0 mi East 4.6 mph - N/A   Clear
11:53 AM 73.0 °F 59.0 °F 61% 29.98 in 10.0 mi SE 5.8 mph - N/A   Clear
12:53 PM 73.9 °F 59.0 °F 59% 29.95 in 10.0 mi East 4.6 mph - N/A   Clear
1:18 PM 73.9 °F 57.9 °F 57% 29.93 in 10.0 mi South 6.9 mph - N/A   Partly Cloudy
1:53 PM 73.9 °F 61.0 °F 64% 29.92 in 10.0 mi SSE 9.2 mph - N/A   Clear
2:53 PM 73.9 °F 60.1 °F 62% 29.91 in 10.0 mi ESE 4.6 mph - N/A   Clear
3:53 PM 75.0 °F 54.0 °F 48% 29.92 in 10.0 mi NNW 8.1 mph - N/A   Clear
4:53 PM 73.0 °F 51.1 °F 46% 29.92 in 10.0 mi North 9.2 mph - N/A   Clear
5:53 PM 69.1 °F 54.0 °F 58% 29.94 in 10.0 mi NW 6.9 mph - N/A   Clear
6:53 PM 66.0 °F 54.0 °F 65% 29.96 in 10.0 mi North 8.1 mph - N/A   Clear
7:53 PM 64.9 °F 53.1 °F 65% 29.97 in 10.0 mi North 8.1 mph - N/A   Clear
8:53 PM 63.0 °F 52.0 °F 67% 29.98 in 10.0 mi North 5.8 mph - N/A   Clear
9:53 PM 63.0 °F 53.1 °F 70% 29.99 in 10.0 mi North 6.9 mph - N/A   Clear
10:53 PM 63.0 °F 52.0 °F 67% 29.98 in 10.0 mi North 6.9 mph - N/A   Clear
11:53 PM 64.0 °F 53.1 °F 67% 29.98 in 10.0 mi ENE 10.4 mph - N/A   Clear